Tracking 27371 objects as of 8-Jun-2023
HD Live streaming from Space Station
objects crossing your sky now

STARLINK-4429

Track STARLINK-4429 now!
10-day predictions
STARLINK-4429 is classified as:


NORAD ID: 53495
Int'l Code: 2022-099AG
Perigee: 567.5 km
Apogee: 572.8 km
Inclination: 97.7 °
Period: 95.9 minutes
Semi major axis: 6941 km
RCS: Unknown
Launch date: August 12, 2022
Source: United States (US)
Launch site: AIR FORCE WESTERN TEST RANGE (AFWTR)
Your satellite tracking list
Your tracking list is empty




NASA's NSSDC Master Catalog

Two Line Element Set (TLE):
1 53495U 22099AG  23158.89709841  .00000973  00000-0  80320-4 0  9999
2 53495  97.6580 280.1043 0003831 183.5167 176.6031 15.01258627 45085
Source of the keplerian elements: AFSPC